Retour au catalogue

CZ-2C DEB

ActifSSO
NORAD 28483·DEBRIS·🇨🇳 China

Lancé Nov 18, 2004 depuis Xichang Satellite Launch Center

Loading…

Prochains Passages (prochaines 24 heures)

TLE

FraisSource: Space-Track

Époque: Sep 14, 2026, 14:37 UTC

1 28483U 04046E   26257.60911058  .00005926  00000-0  76209-3 0  9990
2 28483  98.2961  34.9107 0055374 303.8718 113.8258 14.80464822149966

Suivez CZ-2C DEB en temps réel avec AllMySat

Download on the App Store